"Pseudo-MPEC" for C3ZXYL2

Created 2020 Nov 23 7:07:21 UT using Find_Orb

Click here for an explanation of pseudo-MPECs

 
 Astrometry: 
     C3ZXYL2  C2020 11 22.25844803 55 16.68 +39 34 32.0    ~BM77 20.63GVNEOCPG96
     C3ZXYL2  C2020 11 22.26361803 55 23.26 +39 33 59.3    ~BM77       VNEOCPG96
     C3ZXYL2  C2020 11 22.26880103 55 29.82 +39 33 26.4    ~BM77 20.64GVNEOCPG96
     C3ZXYL2  C2020 11 22.27398503 55 36.52 +39 32 52.9    ~BM77 20.65GVNEOCPG96
     C3ZXYL2 KC2020 11 22.29417203 56 02.32 +39 30 42.3    ~BM7M 20.25GVNEOCPI52
     C3ZXYL2 KC2020 11 22.29599803 56 04.65 +39 30 30.6    ~BM7M 20.40GVNEOCPI52
     C3ZXYL2 KC2020 11 22.29782403 56 07.00 +39 30 18.5    ~BM7M 20.79GVNEOCPI52
     C3ZXYL2 KC2020 11 22.36484403 57 32.94 +39 22 45.0    ~BM97 20.37GVNEOCPI52
     C3ZXYL2 KC2020 11 22.36666903 57 35.29 +39 22 32.6    ~BM97 20.42GVNEOCPI52
     C3ZXYL2 KC2020 11 22.36849603 57 37.64 +39 22 19.7    ~BM97 20.14GVNEOCPI52
     C3ZXYL2 KC2020 11 22.44691503 59 19.91 +39 12 55.7    ~BMBM 19.82GVNEOCPI52
     C3ZXYL2 KC2020 11 22.45139403 59 25.87 +39 12 21.3    ~BMBM 20.38GVNEOCPI52
     C3ZXYL2 KC2020 11 22.45587303 59 31.66 +39 11 47.7    ~BMBM 19.48GVNEOCPI52
     C3ZXYL2 hC2020 11 22P1'ri8w3TrZtZE^uXoBD0-dVQA6N.5Y?=Q./(uc/^[1]s`ph):RjL01
     C3ZXYL2 hC2020 11 22XbASyoah(+ZhodXqspR_T%EJG(Srvo9Onc67kpv%^kvJmPty5NX4L01
     C3ZXYL2 IC2020 11 22R%=p2iF')uPFegk[cK@/!B3nr-Ga\%vh^m9p\_Q?['?H1\f6Vu7RL01
     C3ZXYL2 hC2020 11 22.+%;RfQ1@o/Y?FrpeSR+Tpj@`F;wx#\#?hDJy`DHJWgpP75]itkDL01
     C3ZXYL2 KC2020 11 22.93175404 10 52.63 +38 14 03.0    ~BMMq 20.2 GVNEOCPJ95
     C3ZXYL2 KC2020 11 22.93715704 10 59.81 +38 13 22.9    ~BMMq 20.1 GVNEOCPJ95
     C3ZXYL2 KC2020 11 22.94293304 11 07.57 +38 12 41.2    ~BMMq 20.3 GVNEOCPJ95
     C3ZXYL2 KC2020 11 22.96036504 11 30.91 +38 10 58.1    ~BMNM 20.0 GVNEOCPI93
     C3ZXYL2 KC2020 11 22.96346604 11 34.94 +38 10 34.9    ~BMNM 20.4 GVNEOCPI93
     C3ZXYL2 KC2020 11 22.96656604 11 39.02 +38 10 12.1    ~BMNM 20.0 GVNEOCPI93
     C3ZXYL2 KC2020 11 23D[d*[Z'Z]c7V+5[*v%R]sJg1_JT4RXwqcYQDmhb^ymtZRJ9^JPXt734
     C3ZXYL2 KC2020 11 23=C3hQG**Z[!wn,A;N]MQAstrometryta]xUAH+SvIP/k(1ufk0gh734
     C3ZXYL2 KC2020 11 23%Mc@!Gt)xHj5FE0H+dredacted;DTn.Ev?tbclickd^)R=V;8Xb2734
     C3ZXYL2 KC2020 11 23a:[+O'+`*6$NDL\C#Uq??UIKMYgek)herew,x28'nwAxgEforLer734
     C3ZXYL2 KC2020 11 23.20123704 17 15.04 +37 39 51.6    ~BN5M 20.45GVNEOCPI52
     C3ZXYL2 KC2020 11 23.20367104 17 18.26 +37 39 33.0    ~BN5M 20.20GVNEOCPI52
     C3ZXYL2 KC2020 11 23.20610704 17 21.53 +37 39 14.7    ~BN5M 20.28GVNEOCPI52
     C3ZXYL2 KC2020 11 23c.OYn8h=c;w*B4$O2jA9^5\_ZcJ,2[DkP63GTOx^UAL3J8XkRcASH21
     C3ZXYL2 KC2020 11 23H!LbexplanationB8w@]'WpOeE'IUvBL4=@=Zap\=f.Y.V(]^9TgH21

Station data:
(734) Farpoint Observatory, Eskridge  (N38.890107 W96.001400)  US/Kansas.
   Observer G. Hug. 0.69-m reflector + CCD.
(G96) Mt. Lemmon Survey  (N32.442754 W110.788720)  US/Arizona.  Observers T.
   A. Pruyne, B. M. Africano, E. J. Christensen, G. A. Farneth, D. C. Fuls,
   A. R. Gibbs, A. D. Grauer, H. Gröller, J. A. Johnson, R. A. Kowalski, S.
   M. Larson, G. J. Leonard, D. Rankin, R. L. Seaman, F. C. Shelly. 1.5-m
   reflector + 10K CCD.
(H21) Astronomical Research Observatory, Westfield  (N39.483057 W87.968270)
   US/Illinois. 0.76-m f/3.0 astrograph + CCD.
(I52) Steward Observatory, Mt. Lemmon Station  (N32.442547 W110.788920)
   US/Arizona.  Observers T. A. Pruyne, B. M. Africano, E. J. Christensen, G.
   A. Farneth, D. C. Fuls, A. R. Gibbs, A. D. Grauer, H. Gröller, J. A.
   Johnson, R. A. Kowalski, S. M. Larson, G. J. Leonard, D. Rankin, R. L.
   Seaman, F. C. Shelly. 1.0-m reflector + CCD.
(I93) St Pardon de Conques  (N44.558710 W0.203000)  France.  Observer F.
   Losse. 0.40-m f/3.7 reflector + CCD.
(J95) Great Shefford  (N51.474969 W1.447003)  UK.  Observer P. Birtwhistle.
   0.40-m f/6.0 Schmidt-Cassegrain + CCD.
(L01) Višnjan Observatory, Tičan  (N45.290900 E13.749300)  Croatia.
   Observers K. Korlević, E. Pettarin. Measurer E. Pettarin. 1.0-m f/2.9
   reflector + CCD.

Orbital elements:  C3ZXYL2
   Perihelion 2020 Dec 3.359861 +/- 0.0231 TT =  8:38:11 (JD 2459186.859861)
Epoch 2020 Nov 23.0 TT = JDT 2459176.5   Earth MOID: 0.0328   AutoNEOCP
M 355.62606256 +/- 0.017            (J2000 ecliptic)
n   0.42220041 +/- 0.00111          Peri.  186.39110 +/- 0.028
a   1.75977418 +/- 0.00308          Node   246.51221 +/- 0.0028
e   0.4216102 +/- 0.000969          Incl.    6.56772 +/- 0.011
P   2.33/852.66d           H 26.7   G  0.15   U  8.2  
q 1.01783536 +/- 7.86e-5    Q 2.50171301 +/- 0.00609
From 32 observations 2020 Nov. 22-23 (23.5 hr); mean residual 0".45
Residuals in arcseconds: 
201122 G96  .42+  .15+    201122 I52  .82+  .57-    201122 I93  .13-  .76+    
201122 G96  .01-  .19+    201122 I52  .88-  .93-    201123 734  .25+  .61-    
201122 G96  .82-  .27+    201122 L01  .36+  .43+    201123 734  .91+  .85-    
201122 G96  .01-  .08-    201122 L01  .05-  .08-    201123 734  .84-  .54+    
201122 I52  .06-  .01-    201122 L01  .46+  .26+    201123 734  .58-  .40+    
201122 I52  .10-  .23+    201122 L01  .72+  .01-    201123 I52  .39-  .29+    
201122 I52  .08+  .09+    201122 J95  .37-  .33-    201123 I52  .43-  .13+    
201122 I52  .44+  .09-    201122 J95  .47-  .59-    201123 I52  .12+  .31+    
201122 I52  .42+  .23+    201122 J95  .48+  .46+    201123 H21  .45+  .21+    
201122 I52  .36+  .08+    201122 I93  .42+  .23+    201123 H21  .60+  .45+    
201122 I52  .43+  .66+    201122 I93  .16-  .27+    

Ephemerides (geocentric):
Date (UTC) HH   RA              Dec         delta   r     elong  mag " sig PA
---- -- -- --  -------------   -----------  ------ ------ -----  --- ---- ---
2020 11 23 07  04 19 11.322   +37 27 44.12  .03825 1.0239 162.2 20.6 .162 126
2020 11 23 08  04 20 09.782   +37 22 01.70  .03820 1.0239 162.3 20.6 .158 127
2020 11 23 09  04 21 08.254   +37 16 16.44  .03814 1.0238 162.3 20.6 .153 128
2020 11 23 10  04 22 06.738   +37 10 28.34  .03809 1.0238 162.4 20.6 .147 129
2020 11 23 11  04 23 05.230   +37 04 37.41  .03804 1.0237 162.4 20.6 .139 131
2020 11 23 12  04 24 03.728   +36 58 43.65  .03799 1.0237 162.4 20.6 .131 132
2020 11 23 13  04 25 02.229   +36 52 47.07  .03794 1.0236 162.5 20.6 .122 134
2020 11 23 14  04 26 00.732   +36 46 47.66  .03789 1.0236 162.5 20.5 .112 136
2020 11 23 15  04 26 59.235   +36 40 45.44  .03784 1.0235 162.6 20.5 .101 139
2020 11 23 16  04 27 57.734   +36 34 40.40  .03779 1.0235 162.6 20.5 .090 143
2020 11 23 17  04 28 56.227   +36 28 32.56  .03774 1.0234 162.6 20.5 .078 149
2020 11 23 18  04 29 54.713   +36 22 21.92  .03769 1.0234 162.7 20.5 .066 157
2020 11 23 19  04 30 53.188   +36 16 08.49  .03765 1.0233 162.7 20.5 .055 169
2020 11 23 20  04 31 51.651   +36 09 52.27  .03760 1.0233 162.7 20.5 .047   8
2020 11 23 21  04 32 50.100   +36 03 33.27  .03755 1.0232 162.7 20.5 .045  32
2020 11 23 22  04 33 48.531   +35 57 11.50  .03751 1.0232 162.8 20.5 .052  55
2020 11 23 23  04 34 46.942   +35 50 46.97  .03746 1.0231 162.8 20.5 .065  71
2020 11 24 00  04 35 45.332   +35 44 19.68  .03742 1.0231 162.8 20.5 .083  82
2020 11 24 01  04 36 43.698   +35 37 49.65  .03738 1.0230 162.8 20.5 .104  90
2020 11 24 02  04 37 42.038   +35 31 16.89  .03733 1.0230 162.8 20.5 .127  95
2020 11 24 03  04 38 40.349   +35 24 41.40  .03729 1.0229 162.9 20.5 .152  99
2020 11 24 04  04 39 38.629   +35 18 03.20  .03725 1.0229 162.9 20.5 .178 101
2020 11 24 05  04 40 36.876   +35 11 22.29  .03721 1.0229 162.9 20.5 .206 104
2020 11 24 06  04 41 35.087   +35 04 38.70  .03717 1.0228 162.9 20.5 .235 105
2020 11 24 07  04 42 33.261   +34 57 52.42  .03713 1.0228 162.9 20.5 .266 107
2020 11 24 08  04 43 31.395   +34 51 03.48  .03709 1.0227 162.9 20.5 .298 108
2020 11 24 09  04 44 29.487   +34 44 11.88  .03705 1.0227 162.9 20.5 .331 109
2020 11 24 10  04 45 27.534   +34 37 17.64  .03701 1.0226 162.9 20.5 .366 110
2020 11 24 11  04 46 25.535   +34 30 20.77  .03697 1.0226 162.9 20.5 .402 111
2020 11 24 12  04 47 23.487   +34 23 21.30  .03694 1.0225 162.9 20.5 .439 112
2020 11 24 13  04 48 21.388   +34 16 19.22  .03690 1.0225 162.9 20.5 .477 112
2020 11 24 14  04 49 19.236   +34 09 14.56  .03687 1.0225 162.9 20.5 .517 113
2020 11 24 15  04 50 17.028   +34 02 07.33  .03683 1.0224 162.9 20.5 .558 114
2020 11 24 16  04 51 14.763   +33 54 57.55  .03680 1.0224 162.8 20.5 .600 114
2020 11 24 17  04 52 12.439   +33 47 45.23  .03676 1.0223 162.8 20.5 .644 115
2020 11 24 18  04 53 10.053   +33 40 30.40  .03673 1.0223 162.8 20.5 .689 115
2020 11 24 19  04 54 07.602   +33 33 13.06  .03670 1.0222 162.8 20.5 .735 115
2020 11 24 20  04 55 05.086   +33 25 53.24  .03667 1.0222 162.8 20.5 .782 116
2020 11 24 21  04 56 02.502   +33 18 30.96  .03664 1.0222 162.7 20.5 .831 116
2020 11 24 22  04 56 59.847   +33 11 06.23  .03661 1.0221 162.7 20.5 .881 116
2020 11 24 23  04 57 57.121   +33 03 39.07  .03658 1.0221 162.7 20.5 .933 117
2020 11 25 00  04 58 54.320   +32 56 09.50  .03655 1.0220 162.6 20.5 .985 117
2020 11 25 01  04 59 51.443   +32 48 37.54  .03652 1.0220 162.6 20.5 1.04 117
2020 11 25 02  05 00 48.487   +32 41 03.22  .03649 1.0219 162.6 20.5 1.09 118
2020 11 25 03  05 01 45.452   +32 33 26.54  .03646 1.0219 162.5 20.5 1.15 118
2020 11 25 04  05 02 42.334   +32 25 47.54  .03644 1.0219 162.5 20.5 1.21 118
2020 11 25 05  05 03 39.132   +32 18 06.23  .03641 1.0218 162.4 20.5 1.27 118
2020 11 25 06  05 04 35.844   +32 10 22.64  .03639 1.0218 162.4 20.5 1.33 119